This is the latest recevied weather packets stored in our database for station/object KE5YIM-13. If no packets are shown the sender has not sent any weather packets the latest 10 day(s).
| Time | Temp. | Humidity | Pressure | Rain* | Wind** | Luminosity | Snow |
|---|---|---|---|---|---|---|---|
| 1777636089 | 6.11° C | 91% | 1013.8 hPa | 0 mm | - | 114 W/m² | - |
| 1777635784 | 5.56° C | 94% | 1013.8 hPa | 0 mm | - | 54 W/m² | - |
| 1777635481 | 5° C | 97% | 1013.4 hPa | 0 mm | - | 73 W/m² | - |
| 1777635178 | 4.44° C | 97% | 1013.5 hPa | 0 mm | - | 39 W/m² | - |
| 1777634874 | 4.44° C | 98% | 1013.4 hPa | 0 mm | - | 36 W/m² | - |
| 1777634571 | 4.44° C | 98% | 1013.6 hPa | 0 mm | - | 35 W/m² | - |
| 1777634268 | 3.89° C | 98% | 1013.5 hPa | 0 mm | - | 34 W/m² | - |
| 1777633964 | 3.89° C | 98% | 1013.4 hPa | 0 mm | - | 33 W/m² | - |
| 1777633662 | 3.33° C | 98% | 1013.4 hPa | 0 mm | - | 32 W/m² | - |
| 1777633360 | 2.78° C | 98% | 1013.4 hPa | 0 mm | - | 31 W/m² | - |
| 1777633057 | 2.78° C | 98% | 1013.5 hPa | 0 mm | - | 30 W/m² | - |
| 1777632753 | 2.78° C | 98% | 1013.4 hPa | 0 mm | - | 28 W/m² | - |
| 1777632449 | 2.22° C | 98% | 1013.2 hPa | 0 mm | - | 27 W/m² | - |
| 1777632147 | 2.22° C | 98% | 1013.1 hPa | 0 mm | - | 25 W/m² | - |
| 1777631844 | 1.67° C | 98% | 1013.2 hPa | 0 mm | - | 25 W/m² | - |
| 1777631543 | 1.67° C | 97% | 1013.1 hPa | 0 mm | - | 22 W/m² | - |
| 1777631239 | 1.67° C | 97% | 1012.8 hPa | 0 mm | - | 19 W/m² | - |
| 1777630936 | 1.67° C | 97% | 1012.9 hPa | 0 mm | - | 17 W/m² | - |
| 1777630632 | 1.67° C | 97% | 1012.6 hPa | 0 mm | - | 15 W/m² | - |
| 1777630329 | 2.22° C | 97% | 1012.6 hPa | 0 mm | - | 12 W/m² | - |
| 1777630027 | 2.22° C | 97% | 1012.5 hPa | 0 mm | - | 10 W/m² | - |
| 1777629724 | 1.67° C | 97% | 1012.6 hPa | 0 mm | - | 8 W/m² | - |
| 1777629421 | 2.22° C | 96% | 1012.6 hPa | 0 mm | - | 5 W/m² | - |
| 1777629116 | 2.22° C | 96% | 1012.3 hPa | 0 mm | - | 3 W/m² | - |
| 1777628813 | 2.22° C | 96% | 1012.2 hPa | 0 mm | - | 2 W/m² | - |
* Rain latest hour (hover to see other rain measurements)
** Current wind speed in m/s (hover to see current wind gust speed)